Regional Weather Roundup
Issued by NWS

Home | Current Version | Previous Version | Graphics & Text | Print | Product List | Glossary On
Versions: 1 2 3 4 5 6 7 8 9 10 11 12 13 14 15 16 17 18 19 20 21 22 23 24 25 26 27 28 29 30 31 32 33 34 35 36 37 38 39 40 41 42 43 44 45 46 47 48 49 50
000
ASUS43 KIND 210259
RWRIN

WEATHER ROUNDUP FOR INDIANA
NATIONAL WEATHER SERVICE INDIANAPOLIS IN
1100 PM EDT FRI OCT 20 2017

NOTE: "FAIR" INDICATES FEW OR NO CLOUDS BELOW 12,000 FEET WITH NO
SIGNIFICANT WEATHER AND/OR OBSTRUCTIONS TO VISIBILITY.

* - STATION DOES NOT REPORT WEATHER SUCH AS PRECIPITATION OR FOG.

+ - STATION NOT QUALITY CONTROLLED BY THE NATIONAL WEATHER SERVICE.
    USE DATA WITH CAUTION...ESPECIALLY DEWPOINT AND RELATIVE
    HUMIDITY OBSERVATIONS.

INZ001>003-010>013-019-020-210400-
NORTHWEST INDIANA

CITY           SKY/WX    TMP DP  RH WIND       PRES   REMARKS
GARY /AIRPORT/ PTCLDY    68  46  45 S8        30.08S
MONTICELLO +   PTCLDY    61  50  67 S3        30.12S
RENSSELAER +   PTCLDY    61  41  48 S8        30.11S

$$

LMZ046-743>745-210400-
SOUTHERN LAKE MICHIGAN

STATION/POSITION TIME  TEMP    WIND        PRES    WAVE
                       AIR SEA DIR/SP/G            HT
                 (UTC) (F)     (DEG/KT/KT) (MB)    (FT)
BURNS HARBOR     0240   67     180/ 12/ 18 1019.0R
MICHIGAN CITY    0230   68     160/ 15/ 18   N/A
5NW MICH CITY    0250   63 58  190/ 10/ 12   N/A     1

$$

INZ004-005-014>016-021>024-210400-
NORTH CENTRAL INDIANA

CITY           SKY/WX    TMP DP  RH WIND       PRES   REMARKS
GOSHEN         CLEAR     62  48  60 S10       30.12S
PERU/GRISSOM   PTCLDY    60  50  69 S8        30.13S
SOUTH BEND     PTCLDY    61  50  67 S8        30.12R

$$

INZ006>009-017-018-025>027-210400-
NORTHEAST INDIANA

CITY           SKY/WX    TMP DP  RH WIND       PRES   REMARKS
FORT WAYNE     PTCLDY    57  49  74 S8        30.16S
KENDALLVILLE + CLEAR     59  50  73 S6        30.15S

$$

INZ028-029-035-036-043>045-051>053-210400-
WEST CENTRAL INDIANA

CITY           SKY/WX    TMP DP  RH WIND       PRES   REMARKS
LAFAYETTE      PTCLDY    54  48  80 CALM      30.12S
TERRE HAUTE    PTCLDY    59  48  67 S5        30.13S

$$

INZ030>032-037>040-046>048-054>057-064-065-210400-
CENTRAL INDIANA

CITY           SKY/WX    TMP DP  RH WIND       PRES   REMARKS
GREENWOOD *+   CLEAR     64  51  62 S6        30.17R
INDIANAPOLIS   PTCLDY    63  49  60 S9        30.16R
-EAGLE CREEK   CLEAR     61  49  64 SE3       30.15R
KOKOMO +       PTCLDY    58  49  72 S9        30.16R
MT COMFORT *+  CLEAR     59  52  77 S3        30.17R
SHELBYVILLE    CLEAR     55  47  74 SE6       30.17R

$$

INZ033-034-041-042-049-050-058-059-210400-
EAST CENTRAL INDIANA

CITY           SKY/WX    TMP DP  RH WIND       PRES   REMARKS
MUNCIE         CLEAR     64  51  62 S7        30.17R
RICHMOND +     CLEAR     54  50  87 S7        30.20S

$$

INZ060-061-067>069-081>083-085>088-210400-
SOUTHWEST INDIANA

CITY           SKY/WX    TMP DP  RH WIND       PRES   REMARKS
EVANSVILLE     PTCLDY    58  50  75 CALM      30.15R
HUNTINGBURG +  CLOUDY    59  50  72 SE6       30.16S

$$

INZ062-063-066-070>080-084-089>092-210400-
SOUTH CENTRAL AND SOUTHEAST INDIANA

CITY           SKY/WX    TMP DP  RH WIND       PRES   REMARKS
BLOOMINGTON    PTCLDY    62  48  60 SE5       30.16S
MADISON *+     CLEAR     54  50  87 CALM      30.21S
SEYMOUR +      CLOUDY    59  50  72 SE3       30.17S

$$





USA.gov is the U.S. government's official web portal to all federal, state and local government web resources and services.